This demonstration page uses our WeatherBlox Daily Observations layout. Learn more.

Left ArrowRight Arrow

34.74481, -87.66753

Hourly Observations for August 20, 2015

Temp ( °F °C ) Dew Point ( °F °C ) Humidity (%) Winds ( mph kmh ) Pressure ( in mb ) Visibility ( mi km ) Precip ( " mm )
12:53 am 00:53 Cloudy 74 23.3 71 21.7 91 91 WSW 5 7 29.94 1014 10 16 0.00 0.00
1:45 am 01:45 Partly Cloudy 73 22.8 70 21.1 90 90 SW 6 9 29.91 1013 10 16 0.00 0.00
1:53 am 01:53 Mostly Clear 73 22.8 70 21.1 90 90 WSW 5 7 29.93 1013 10 16 0.00 0.00
2:53 am 02:53 Cloudy 73 22.8 70 21.1 90 90 SW 3 6 29.94 1014 10 16 0.00 0.00
3:53 am 03:53 Cloudy 73 22.8 70 21.1 90 90 S 3 6 29.95 1014 10 16 0.00 0.00
4:07 am 04:07 Cloudy 73 22.8 70 21.1 90 90 SSW 3 6 29.94 1014 10 16 0.00 0.00
4:31 am 04:31 Cloudy 73 22.8 70 21.1 90 90 Calm 29.94 1014 10 16 0.00 0.00
4:38 am 04:38 Cloudy 73 22.8 70 21.1 90 90 Calm 29.94 1014 10 16 0.00 0.00
4:53 am 04:53 Cloudy 73 22.8 70 21.1 90 90 Calm 29.95 1014 10 16 0.00 0.00
5:23 am 05:23 Cloudy 73 22.8 70 21.1 90 90 Calm 29.94 1014 10 16 0.00 0.00
5:31 am 05:31 Cloudy 73 22.8 70 21.1 90 90 WSW 3 6 29.94 1014 10 16 0.00 0.00
5:40 am 05:40 Cloudy 73 22.8 70 21.1 90 90 Calm 29.94 1014 10 16 0.00 0.00
5:53 am 05:53 Cloudy 73 22.8 70 21.1 90 90 W 3 6 29.97 1015 10 16 0.00 0.00
6:10 am 06:10 Cloudy 73 22.8 70 21.1 90 90 W 3 6 29.97 1015 10 16 0.00 0.03
6:53 am 06:53 Cloudy with Light Rain 73 22.8 70 21.1 90 90 NW 6 9 29.99 1016 7 11 0.01 0.25
7:07 am 07:07 Cloudy with Light Rain 73 22.8 70 21.1 90 90 WNW 6 9 29.97 1015 6 10 0.00 0.03
7:53 am 07:53 Cloudy with Light Rain 73 22.8 70 21.1 90 90 NNW 6 9 30.01 1016 6 10 0.02 0.51
8:53 am 08:53 Cloudy with Light Rain 72 22.2 69 20.6 91 91 Calm 30.02 1017 9 14 0.05 1.27
9:02 am 09:02 Cloudy 72 22.2 69 20.6 91 91 N 3 6 30.00 1016 10 16 0.00 0.03
9:09 am 09:09 Cloudy 73 22.8 70 21.1 90 90 NW 3 6 30.00 1016 10 16 0.00 0.03
9:37 am 09:37 Cloudy 74 23.3 69 20.6 85 85 Calm 30.00 1016 10 16 0.00 0.03
9:53 am 09:53 Mostly Cloudy 75 23.9 69 20.6 82 82 Calm 30.02 1017 10 16 0.00 0.03
10:11 am 10:11 Mostly Cloudy 76 24.4 70 21.1 82 82 WNW 3 6 30.00 1016 10 16 0.00 0.00
10:23 am 10:23 Cloudy 76 24.4 70 21.1 82 82 NW 6 9 30.00 1016 10 16 0.00 0.00
10:53 am 10:53 Cloudy 75 23.9 70 21.1 84 84 N 5 7 30.03 1017 10 16 0.00 0.00
11:31 am 11:31 Cloudy 77 25 70 21.1 79 79 NNW 3 6 30.00 1016 10 16 0.00 0.00
11:53 am 11:53 Cloudy 77 25 69 20.6 77 77 Calm 30.02 1017 10 16 0.00 0.00
12:53 pm 12:53 Cloudy 76 24.4 69 20.6 79 79 WSW 3 6 30.03 1017 10 16 0.00 0.00
1:34 pm 13:34 Cloudy 76 24.4 69 20.6 79 79 N 7 11 30.03 1017 10 16 0.00 0.00
1:53 pm 13:53 Cloudy 77 25 70 21.1 79 79 VRB 7 11 30.03 1017 10 16 0.00 0.00
2:05 pm 14:05 Cloudy 77 25 69 20.6 77 77 VRB 7 11 30.00 1016 10 16 0.00 0.00
2:14 pm 14:14 Cloudy 77 25 70 21.1 79 79 N 6 9 30.00 1016 10 16 0.00 0.00
2:34 pm 14:34 Cloudy 78 25.6 70 21.1 76 76 N 6 9 30.00 1016 10 16 0.00 0.00
2:53 pm 14:53 Cloudy 78 25.6 70 21.1 76 76 NNW 6 9 30.01 1016 10 16 0.00 0.00
3:46 pm 15:46 Cloudy 78 25.6 69 20.6 74 74 NNW 6 9 30.00 1016 10 16 0.00 0.00
3:53 pm 15:53 Cloudy 79 26.1 69 20.6 72 72 Calm 30.00 1016 10 16 0.00 0.00
4:53 pm 16:53 Mostly Cloudy 79 26.1 69 20.6 72 72 VRB 3 6 29.99 1016 10 16 0.00 0.00
5:53 pm 17:53 Sunny 78 25.6 69 20.6 74 74 Calm 29.99 1016 10 16 0.00 0.00
6:53 pm 18:53 Sunny 76 24.4 71 21.7 85 85 Calm 30.01 1016 10 16 0.00 0.00
7:53 pm 19:53 Partly Cloudy 73 22.8 69 20.6 87 87 Calm 30.03 1017 10 16 0.00 0.00
8:53 pm 20:53 Mostly Cloudy 73 22.8 69 20.6 87 87 Calm 30.04 1017 10 16 0.00 0.00
9:53 pm 21:53 Mostly Clear 72 22.2 69 20.6 91 91 Calm 30.03 1017 8 13 0.00 0.00
10:53 pm 22:53 Clear 71 21.7 68 20 90 90 ESE 3 6 30.03 1017 7 11 0.00 0.00
11:53 pm 23:53 Cloudy 72 22.2 69 20.6 91 91 Calm 30.05 1018 9 14 0.00 0.00

Powered by AerisWeather